User: anonymous   Login
Location: Unspecified
(0.0000°N, 0.0000°E)
Time: 13:41:13
(UTC+01:00)
Language:

Cosmos 773 Rocket - Orbit

View from above orbital plane
View from above orbital plane
View from above satellite
View from above satellite

Ground track
Ground track

The orbit data is extracted from the following two-line orbital elements,

1 08344U 75094B   14329.52117998  .00000302  00000-0  10655-3 0  6245
2 08344 074.0594 047.6533 0021659 186.6954 271.6839 14.38847930 51256
Epoch (UTC): 25 November 2014 12:30:29
Eccentricity: 0.0021659
inclination: 74.0594°
perigee height: 747 km
apogee height: 778 km
right ascension of ascending node: 47.6533°
argument of perigee: 186.6954°
revolutions per day: 14.38847930
mean anomaly at epoch: 271.6839°
orbit number at epoch: 5125

The dashed part of the orbit path shows where the satellite is in the earth's shadow,  

DLR